Location: Silverdale
(47.6506°N, 122.6941°W)
Time: 03:51:23
(UTC+00:00)

Altair - Pass Details

Date: 09 October 2022
Orbit: 1501 x 1682 km, 47.2° (Epoch: 05 December)

Event Time Altitude Azimuth Distance (km) Brightness Sun altitude
Rises 11:53:39 0° 235° (SW) 4,721 - -25.3°
Reaches altitude 10° 11:56:41 10° 232° (SW) 3,762 - -24.8°
Exits shadow 12:01:18 33° 222° (SW) 2,440 8.1 -24.1°
Maximum altitude 12:06:07 65° 154° (SSE) 1,752 7.7 -23.3°
Drops below altitude 10° 12:15:57 10° 75° (ENE) 3,908 10.8 -21.7°
Sets 12:19:10 0° 73° (ENE) 4,913 11.7 -21.2°
